Weather History for Sevilla, Spain

Change the Weather History Date:

Saturday, November 10, 2012

  Actual Average Record
Temperature  
Mean Temperature 57 °F -  
Max Temperature 64 °F 64 °F 77 °F (1998)
Min Temperature 50 °F 47 °F 41 °F (2001)
Degree Days  
Heating Degree Days 8    
Growing Degree Days 7 (Base 50)    
Moisture  
Dew Point 54 °F    
Average Humidity 90    
Maximum Humidity 100    
Minimum Humidity 68    
Precipitation  
Precipitation 0.00 in - - ()
Sea Level Pressure  
Sea Level Pressure 29.94 in    
Wind  
Wind Speed 2 mph ()    
Max Wind Speed 10 mph    
Max Gust Speed -    
Visibility 3.8 miles    
Events Fog    
Averages and records for this station are not official NWS values.
T = Trace of Precipitation, MM = Missing Value Source: Averaged Metar Reports

Daily Weather History Graph

Daily Weather History Graph

Search for Another Location

Airport:

Trip Planner

Search our weather history database for the weather conditions in past years. The results will help you decide how hot, cold, wet, or windy it might be!

Date:

Astronomy

Nov. 10, 2012 Rise Set
Actual Time 7:58 AM CET 6:16 PM CET
Civil Twilight 7:30 AM CET 6:44 PM CET
Nautical Twilight 6:59 AM CET 7:15 PM CET
Astronomical Twilight 6:28 AM CET 7:46 PM CET
Moon 3:51 AM CET (11/10) 3:51 PM CET (11/10)
Length of Visible Light 11h 13m
Length of Day
10h 18m
Waning Crescent, 16% of the Moon is Illuminated
Nov 10
Waning Crescent
Nov 13
New
Nov 20
First Quarter
Nov 28
Full
Dec 6
Last Quarter

Hourly Weather History & Observations

Time (CET) Temp. Dew Point Humidity Pressure Visibility Wind Dir Wind Speed Gust Speed Precip Events Conditions
12:00 AM 53.6 °F 53.6 °F 100% 29.95 in 5.0 mi Calm Calm - N/A   Partly Cloudy
12:30 AM 53.6 °F 51.8 °F 94% 29.95 in 5.0 mi Calm Calm - N/A   Partly Cloudy
1:00 AM 53.6 °F 51.8 °F 94% 29.95 in 3.1 mi Calm Calm - N/A   Partly Cloudy
1:30 AM 53.6 °F 51.8 °F 94% 29.95 in 3.1 mi NNW 1.2 mph - N/A   Partly Cloudy
2:00 AM 51.8 °F 51.8 °F 100% 29.95 in 3.1 mi North 1.2 mph - N/A   Partly Cloudy
4:30 AM 51.8 °F 51.8 °F 100% 29.92 in 3.1 mi Calm Calm - N/A   Partly Cloudy
5:00 AM 51.8 °F 50.0 °F 94% 29.92 in 0.2 mi Calm Calm - N/A Fog Fog
5:30 AM 51.8 °F 50.0 °F 94% 29.92 in 0.3 mi Calm Calm - N/A Fog Fog
6:00 AM 51.8 °F 50.0 °F 94% 29.92 in 0.5 mi SSE 2.3 mph - N/A Fog Fog
6:30 AM 50.0 °F 50.0 °F 100% 29.95 in 0.5 mi NW 1.2 mph - N/A Fog Patches of Fog
7:00 AM 50.0 °F 48.2 °F 94% 29.95 in 0.3 mi Calm Calm - N/A Fog Patches of Fog
7:30 AM 50.0 °F 50.0 °F 100% 29.95 in 0.1 mi Calm Calm - N/A Fog Fog
8:00 AM 50.0 °F 50.0 °F 100% 29.95 in 0.1 mi Calm Calm - N/A Fog Fog
8:30 AM 50.0 °F 50.0 °F 100% 29.95 in 0.1 mi Variable 2.3 mph - N/A Fog Fog
9:00 AM 50.0 °F 50.0 °F 100% 29.98 in 0.1 mi Calm Calm - N/A Fog Fog
9:30 AM 51.8 °F 50.0 °F 94% 29.98 in 0.1 mi Variable 1.2 mph - N/A Fog Fog
10:00 AM 51.8 °F 51.8 °F 100% 29.98 in 0.1 mi Calm Calm - N/A Fog Fog
10:30 AM 53.6 °F 53.6 °F 100% 30.01 in 0.2 mi Calm Calm - N/A Fog Fog
11:00 AM 53.6 °F 53.6 °F 100% 30.01 in 0.5 mi Calm Calm - N/A Fog Fog
11:30 AM 53.6 °F 53.6 °F 100% 30.01 in 0.9 mi Calm Calm - N/A   Mist
12:00 PM 55.4 °F 55.4 °F 100% 29.98 in 1.9 mi Calm Calm - N/A   Mostly Cloudy
12:30 PM 55.4 °F 55.4 °F 100% 29.98 in 4.3 mi Calm Calm - N/A   Scattered Clouds
1:00 PM 57.2 °F 57.2 °F 100% 29.98 in 5.0 mi Variable 1.2 mph - N/A   Scattered Clouds
1:30 PM 59.0 °F 55.4 °F 88% 29.95 in 6.2 mi SW 4.6 mph - N/A   Partly Cloudy
2:00 PM 60.8 °F 55.4 °F 82% 29.95 in 6.2 mi SSW 3.5 mph - N/A   Partly Cloudy
2:30 PM 62.6 °F 57.2 °F 82% 29.92 in 6.2 mi SSW 4.6 mph - N/A   Partly Cloudy
3:00 PM 62.6 °F 57.2 °F 82% 29.92 in 6.2 mi SSW 9.2 mph - N/A   Partly Cloudy
3:30 PM 64.4 °F 55.4 °F 73% 29.92 in 6.2 mi SSW 8.1 mph - N/A   Partly Cloudy
4:00 PM 64.4 °F 55.4 °F 73% 29.92 in 6.2 mi SSW 8.1 mph - N/A   Partly Cloudy
4:30 PM 64.4 °F 53.6 °F 68% 29.92 in 6.2 mi SW 9.2 mph - N/A   Partly Cloudy
5:00 PM 64.4 °F 53.6 °F 68% 29.92 in 6.2 mi WSW 10.4 mph - N/A   Partly Cloudy
5:30 PM 62.6 °F 53.6 °F 72% 29.92 in 6.2 mi West 10.4 mph - N/A   Partly Cloudy
6:00 PM 62.6 °F 55.4 °F 77% 29.92 in 6.2 mi SW 9.2 mph - N/A   Partly Cloudy
6:30 PM 60.8 °F 55.4 °F 82% 29.92 in 6.2 mi SW 8.1 mph - N/A   Partly Cloudy
7:00 PM 60.8 °F 55.4 °F 82% 29.92 in 6.2 mi WSW 9.2 mph - N/A   Partly Cloudy
7:30 PM 59.0 °F 55.4 °F 88% 29.92 in 6.2 mi SW 3.5 mph - N/A   Scattered Clouds
8:00 PM 59.0 °F 55.4 °F 88% 29.92 in 6.2 mi SW 5.8 mph - N/A   Scattered Clouds
8:30 PM 59.0 °F 55.4 °F 88% 29.92 in 6.2 mi SSW 5.8 mph - N/A   Partly Cloudy
9:00 PM 59.0 °F 55.4 °F 88% 29.92 in 6.2 mi SW 6.9 mph - N/A   Scattered Clouds
9:30 PM 60.8 °F 55.4 °F 82% 29.92 in 6.2 mi SW 10.4 mph - N/A   Scattered Clouds
10:00 PM 60.8 °F 57.2 °F 88% 29.92 in 6.2 mi WSW 9.2 mph - N/A   Scattered Clouds
10:30 PM 60.8 °F 55.4 °F 82% 29.92 in 6.2 mi WSW 9.2 mph - N/A   Partly Cloudy
11:00 PM 59.0 °F 55.4 °F 88% 29.92 in 6.2 mi WSW 6.9 mph - N/A   Partly Cloudy
11:30 PM 59.0 °F 55.4 °F 88% 29.92 in 6.2 mi West 9.2 mph - N/A   Scattered Clouds